DW6283 Weather Reports


time (UTC)temp
C
wind
direction
speed
KPH
gust
KPH
rain 1hr
cm
rain 24hr
cm
rain mn
cm
humidity
%
barometer
mb
20260507104530 13 125 0.0 0.0 0.00 0.00 0.00 83 1016.8
20260507103025 13 125 0.0 0.0 0.00 0.00 0.00 83 1016.8
20260507101511 13 125 0.0 0.0 0.00 0.00 0.00 82 1016.8
20260507100053 14 125 0.0 0.0 0.00 0.00 0.00 81 1016.8
20260507094552 14 125 0.0 0.0 0.00 0.00 0.00 82 1016.8
20260507093038 14 125 0.0 0.0 0.00 0.00 0.00 81 1016.9
20260507091535 14 125 0.0 0.0 0.00 0.00 0.00 79 1016.9
20260507090020 15 125 0.0 0.0 0.00 0.00 0.00 78 1017.0
20260507084518 15 125 0.0 0.0 0.00 0.00 0.00 77 1017.1
20260507083117 15 125 0.0 0.0 0.00 0.00 0.00 76 1017.1
20260507081558 15 125 0.0 1.6 0.00 0.00 0.00 76 1017.2
20260507080114 16 125 0.0 0.0 0.00 0.00 0.00 76 1016.9
20260507074540 16 125 0.0 0.0 0.00 0.00 0.00 74 1017.0
20260507073040 16 125 0.0 0.0 0.00 0.00 0.00 75 1017.1
20260507071554 16 125 0.0 0.0 0.00 0.00 0.00 73 1017.2
20260507070021 16 125 0.0 0.0 0.00 0.00 0.00 72 1017.1
20260507064504 16 125 0.0 0.0 0.00 0.00 0.00 71 1017.1
20260507063004 17 125 0.0 0.0 0.00 0.00 0.00 70 1017.0
20260507061545 17 125 0.0 0.0 0.00 0.00 0.00 70 1017.1
20260507060045 17 125 0.0 0.0 0.00 0.00 0.00 68 1017.1
20260507054527 17 125 0.0 0.0 0.00 0.00 0.00 67 1017.1
20260507053037 18 125 0.0 0.0 0.00 0.00 0.00 65 1017.1
20260507051512 18 125 0.0 0.0 0.00 0.00 0.00 64 1017.1
20260507050011 19 125 0.0 0.0 0.00 0.00 0.00 62 1017.1
20260507044555 19 125 0.0 0.0 0.00 0.00 0.00 61 1016.9
20260507043052 20 125 0.0 0.0 0.00 0.00 0.00 59 1016.8
20260507041532 20 125 0.0 1.6 0.00 0.00 0.00 58 1016.8
20260507040030 20 125 0.0 0.0 0.00 0.00 0.00 57 1016.7
20260507034527 21 125 0.0 0.0 0.00 0.00 0.00 55 1016.5
20260507033020 21 125 0.0 3.2 0.00 0.00 0.00 54 1016.3
20260507031556 22 125 0.0 0.0 0.00 0.00 0.00 53 1016.2
20260507030057 22 125 0.0 3.2 0.00 0.00 0.00 51 1016.0
20260507024540 22 128 0.0 4.8 0.00 0.00 0.00 50 1015.9
20260507023037 23 59 0.0 1.6 0.00 0.00 0.00 48 1016.0
20260507021518 23 59 0.0 3.2 0.00 0.00 0.00 46 1015.8
20260507020020 24 59 0.0 4.8 0.00 0.00 0.00 45 1015.8
20260507014617 25 59 0.0 3.2 0.00 0.00 0.00 45 1015.8
20260507013058 25 58 0.0 3.2 0.00 0.00 0.00 44 1015.8
20260507011542 25 71 0.0 8.0 0.00 0.00 0.00 43 1015.8
20260507010040 26 32 0.0 8.0 0.00 0.00 0.00 42 1015.9
20260507004531 26 42 0.0 3.2 0.00 0.00 0.00 41 1016.0
20260507003021 27 115 0.0 4.8 0.00 0.00 0.00 40 1015.8
20260507001502 27 61 0.0 8.0 0.00 0.00 0.00 40 1015.9
20260507000002 27 131 0.0 1.6 0.00 0.00 0.00 39 1015.9
20260506234544 27 69 0.0 4.8 0.00 0.00 0.00 38 1015.9
20260506233043 27 32 0.0 12.9 0.00 0.00 0.00 39 1016.0
20260506231523 28 24 0.0 4.8 0.00 0.00 0.00 37 1016.1
20260506230021 28 52 0.0 4.8 0.00 0.00 0.00 37 1016.3
20260506224502 28 51 0.0 8.0 0.00 0.00 0.00 36 1016.4
20260506223110 28 93 0.0 4.8 0.00 0.00 0.00 36 1016.7
20260506221542 28 140 0.0 3.2 0.00 0.00 0.00 36 1016.8
20260506220041 28 48 0.0 11.3 0.00 0.00 0.00 37 1017.0
20260506214521 28 60 0.0 3.2 0.00 0.00 0.00 36 1017.2
20260506213017 28 86 0.0 6.4 0.00 0.00 0.00 36 1017.4
20260506211605 28 46 0.0 4.8 0.00 0.00 0.00 36 1017.6
20260506210057 27 43 0.0 8.0 0.00 0.00 0.00 37 1017.8
20260506204543 28 29 0.0 4.8 0.00 0.00 0.00 37 1017.9
20260506203036 28 69 0.0 1.6 0.00 0.00 0.00 36 1018.0
20260506201516 27 69 0.0 6.4 0.00 0.00 0.00 37 1018.2
20260506200019 27 77 0.0 4.8 0.00 0.00 0.00 38 1018.5
20260506194605 27 77 0.0 3.2 0.00 0.00 0.00 36 1018.6
20260506193054 26 78 0.0 4.8 0.00 0.00 0.00 37 1018.8
20260506191530 26 82 0.0 4.8 0.00 0.00 0.00 39 1019.0
20260506190028 25 234 0.0 4.8 0.00 0.00 0.00 41 1019.1
20260506184517 25 72 0.0 4.8 0.00 0.00 0.00 41 1019.2
20260506183015 25 76 0.0 1.6 0.00 0.00 0.00 42 1019.3
20260506181516 25 76 0.0 1.6 0.00 0.00 0.00 42 1019.4
20260506180010 25 76 0.0 3.2 0.00 0.00 0.00 45 1019.5
20260506174505 23 79 0.0 3.2 0.00 0.00 0.00 48 1019.5
20260506173003 23 80 0.0 3.2 0.00 0.00 0.00 50 1019.5
20260506171559 22 86 0.0 4.8 0.00 0.00 0.00 54 1019.6
20260506170058 22 86 0.0 3.2 0.00 0.00 0.00 52 1019.6
20260506164536 22 86 0.0 1.6 0.00 0.00 0.00 54 1019.7
20260506163032 21 86 0.0 1.6 0.00 0.00 0.00 58 1019.7
20260506161511 20 86 0.0 1.6 0.00 0.00 0.00 57 1019.8
20260506160007 20 86 0.0 1.6 0.00 0.00 0.00 60 1019.9
20260506154548 18 86 0.0 0.0 0.00 0.00 0.00 62 1019.9
20260506153042 17 86 0.0 1.6 0.00 0.00 0.00 67 1019.9
20260506151520 16 86 0.0 0.0 0.00 0.00 0.00 72 1019.9
20260506150016 15 86 0.0 0.0 0.00 0.00 0.00 79 1019.9
20260506144606 13 86 0.0 0.0 0.00 0.00 0.00 82 1019.9
20260506143054 12 86 0.0 0.0 0.00 0.00 0.00 86 1019.8
20260506141536 10 86 0.0 0.0 0.00 0.00 0.00 92 1019.7
20260506140034 9 86 0.0 0.0 0.00 0.00 0.00 93 1019.6
20260506134514 8 86 0.0 0.0 0.00 0.00 0.00 93 1019.4
20260506133016 8 86 0.0 0.0 0.00 0.00 0.00 92 1019.2
20260506131556 8 86 0.0 0.0 0.00 0.00 0.00 92 1019.0
20260506130053 8 86 0.0 0.0 0.00 0.00 0.00 92 1018.9
20260506124540 8 86 0.0 0.0 0.00 0.00 0.00 92 1018.7
20260506123038 8 86 0.0 0.0 0.00 0.00 0.00 91 1018.6
20260506121536 8 86 0.0 0.0 0.00 0.00 0.00 91 1018.5
20260506120035 8 86 0.0 0.0 0.00 0.00 0.00 91 1018.5
20260506114533 9 86 0.0 0.0 0.00 0.00 0.00 91 1018.2
20260506113032 9 86 0.0 0.0 0.00 0.00 0.00 91 1018.2
20260506111529 10 86 0.0 0.0 0.00 0.00 0.00 91 1018.1
20260506110029 10 86 0.0 0.0 0.00 0.00 0.00 91 1018.2